W9IF-4 Weather Reports


Display with metric or nautical units.
time (UTC)temp
F
wind
direction
speed
MPH
gust
MPH
rain 1hr
in
rain 24hr
in
rain mn
in
humidity
%
barometer
mb
20140723173556 80 270 3.0 0.0 0.00 0.00 0.00 1019.5
20140723173456 80 263 5.0 0.0 0.00 0.00 0.00 1019.5
20140723173356 80 277 5.0 0.0 0.00 0.00 0.00 1019.5
20140723173256 80 281 4.0 0.0 0.00 0.00 0.00 1019.5
20140723173156 80 243 5.0 0.0 0.00 0.00 0.00 1019.5
20140723173056 80 257 5.0 0.0 0.00 0.00 0.00 1019.5
20140723172956 81 250 5.0 0.0 0.00 0.00 0.00 1019.5
20140723172856 81 260 6.0 0.0 0.00 0.00 0.00 1019.4
20140723172756 80 228 5.0 0.0 0.00 0.00 0.00 1019.4
20140723172656 81 281 6.0 0.0 0.00 0.00 0.00 1019.4
20140723172456 82 277 6.0 0.0 0.00 0.00 0.00 1019.5
20140723172356 82 293 5.0 0.0 0.00 0.00 0.00 1019.5
20140723172256 81 253 6.0 0.0 0.00 0.00 0.00 1019.5
20140723172156 81 283 6.0 0.0 0.00 0.00 0.00 1019.5
20140723172056 81 291 0.0 0.0 0.00 0.00 0.00 1019.5
20140723171956 81 291 0.0 0.0 0.00 0.00 0.00 1019.5
20140723171856 80 291 0.0 0.0 0.00 0.00 0.00 1019.5
20140723171756 80 291 0.0 0.0 0.00 0.00 0.00 1019.5
20140723171656 80 291 3.0 0.0 0.00 0.00 0.00 1019.5
20140723171556 80 287 3.0 0.0 0.00 0.00 0.00 1019.5
20140723171456 80 276 3.0 0.0 0.00 0.00 0.00 1019.5
20140723171256 80 271 5.0 0.0 0.00 0.00 0.00 1019.5
20140723171156 80 264 3.0 0.0 0.00 0.00 0.00 1019.5
20140723171056 81 302 4.0 0.0 0.00 0.00 0.00 1019.5
20140723170956 80 242 3.0 0.0 0.00 0.00 0.00 1019.5
20140723170856 80 276 5.0 0.0 0.00 0.00 0.00 1019.5
20140723170756 80 288 5.0 0.0 0.00 0.00 0.00 1019.4
20140723170556 80 288 0.0 0.0 0.00 0.00 0.00 1019.4
20140723170456 80 288 0.0 0.0 0.00 0.00 0.00 1019.4
20140723170356 80 288 0.0 0.0 0.00 0.00 0.00 1019.4
20140723170256 80 288 0.0 0.0 0.00 0.00 0.00 1019.4
20140723170156 80 288 0.0 0.0 0.00 0.00 0.00 1019.4
20140723170056 80 288 0.0 0.0 0.00 0.00 0.00 1019.4
20140723165956 80 290 3.0 0.0 0.00 0.00 0.00 1019.4
20140723165856 80 295 3.0 0.0 0.00 0.00 0.00 1019.4
20140723165756 81 283 5.0 0.0 0.00 0.00 0.00 1019.4
20140723165656 81 293 4.0 0.0 0.00 0.00 0.00 1019.4
20140723165556 82 281 4.0 0.0 0.00 0.00 0.00 1019.4
20140723165456 81 250 5.0 0.0 0.00 0.00 0.00 1019.4
20140723165356 80 285 0.0 0.0 0.00 0.00 0.00 1019.4
20140723165156 79 225 0.0 0.0 0.00 0.00 0.00 1019.4
20140723165056 80 225 0.0 0.0 0.00 0.00 0.00 1019.4
20140723164956 79 225 0.0 0.0 0.00 0.00 0.00 1019.3
20140723164856 80 225 0.0 0.0 0.00 0.00 0.00 1019.3
20140723164756 80 225 0.0 0.0 0.00 0.00 0.00 1019.4
20140723164656 79 225 0.0 0.0 0.00 0.00 0.00 1019.4
20140723164556 79 225 0.0 0.0 0.00 0.00 0.00 1019.4
20140723164456 78 255 3.0 0.0 0.00 0.00 0.00 1019.3
20140723164356 77 255 0.0 0.0 0.00 0.00 0.00 1019.3
20140723164257 78 255 0.0 0.0 0.00 0.00 0.00 1019.3
20140723164156 78 255 0.0 0.0 0.00 0.00 0.00 1019.3
20140723164056 78 255 0.0 0.0 0.00 0.00 0.00 1019.3
20140723163956 78 255 0.0 0.0 0.00 0.00 0.00 1019.3
20140723163856 77 255 0.0 0.0 0.00 0.00 0.00 1019.3
20140723163756 76 255 0.0 0.0 0.00 0.00 0.00 1019.3
20140723163656 78 255 0.0 0.0 0.00 0.00 0.00 1019.3
20140723163556 78 255 0.0 0.0 0.00 0.00 0.00 1019.3
20140723163456 78 255 0.0 0.0 0.00 0.00 0.00 1019.2
20140723163356 77 255 0.0 0.0 0.00 0.00 0.00 1019.2
20140723163256 77 302 3.0 0.0 0.00 0.00 0.00 1019.2
20140723163156 78 287 3.0 0.0 0.00 0.00 0.00 1019.2
20140723163056 78 297 0.0 0.0 0.00 0.00 0.00 1019.2
20140723162956 77 297 0.0 0.0 0.00 0.00 0.00 1019.2
20140723162856 77 302 4.0 0.0 0.00 0.00 0.00 1019.2
20140723162656 77 270 0.0 0.0 0.00 0.00 0.00 1019.2
20140723162556 75 270 0.0 0.0 0.00 0.00 0.00 1019.2
20140723162456 75 270 0.0 0.0 0.00 0.00 0.00 1019.2
20140723162356 76 346 0.0 0.0 0.00 0.00 0.00 1019.2
20140723162256 77 346 0.0 0.0 0.00 0.00 0.00 1019.2
20140723162156 76 346 0.0 0.0 0.00 0.00 0.00 1019.2
20140723162056 75 346 0.0 0.0 0.00 0.00 0.00 1019.2
20140723161956 75 346 0.0 0.0 0.00 0.00 0.00 1019.2
20140723161856 75 346 0.0 0.0 0.00 0.00 0.00 1019.2
20140723161656 75 346 0.0 0.0 0.00 0.00 0.00 1019.3
20140723161556 76 346 0.0 0.0 0.00 0.00 0.00 1019.3
20140723161456 75 346 0.0 0.0 0.00 0.00 0.00 1019.3
20140723161257 76 346 0.0 0.0 0.00 0.00 0.00 1019.3
20140723160956 75 346 0.0 0.0 0.00 0.00 0.00 1019.3
20140723160856 76 346 0.0 0.0 0.00 0.00 0.00 1019.4
20140723160656 76 346 0.0 0.0 0.00 0.00 0.00 1019.4
20140723160556 76 346 0.0 0.0 0.00 0.00 0.00 1019.4
20140723160456 75 346 0.0 0.0 0.00 0.00 0.00 1019.4
20140723160356 76 346 0.0 0.0 0.00 0.00 0.00 1019.3
20140723160256 76 346 0.0 0.0 0.00 0.00 0.00 1019.4
20140723160156 77 346 0.0 0.0 0.00 0.00 0.00 1019.4
20140723160056 76 346 0.0 0.0 0.00 0.00 0.00 1019.4
20140723155956 75 346 0.0 0.0 0.00 0.00 0.00 1019.4
20140723155856 76 346 0.0 0.0 0.00 0.00 0.00 1019.4
20140723155756 75 346 0.0 0.0 0.00 0.00 0.00 1019.4
20140723155656 75 346 0.0 0.0 0.00 0.00 0.00 1019.4
20140723155556 74 346 0.0 0.0 0.00 0.00 0.00 1019.4
20140723155456 75 346 0.0 0.0 0.00 0.00 0.00 1019.4
20140723155356 75 346 0.0 0.0 0.00 0.00 0.00 1019.4
20140723155256 75 346 0.0 0.0 0.00 0.00 0.00 1019.4
20140723155156 76 346 0.0 0.0 0.00 0.00 0.00 1019.4
20140723155056 76 346 0.0 0.0 0.00 0.00 0.00 1019.4
20140723154956 76 346 0.0 0.0 0.00 0.00 0.00 1019.4
20140723154856 76 346 0.0 0.0 0.00 0.00 0.00 1019.4
20140723154656 75 346 0.0 0.0 0.00 0.00 0.00 1019.5
20140723154556 75 346 0.0 0.0 0.00 0.00 0.00 1019.5
20140723154456 74 346 0.0 0.0 0.00 0.00 0.00 1019.5
20140723154356 74 346 0.0 0.0 0.00 0.00 0.00 1019.5
20140723154256 73 346 0.0 0.0 0.00 0.00 0.00 1019.5
20140723154156 72 346 0.0 0.0 0.00 0.00 0.00 1019.6
20140723154056 72 346 0.0 0.0 0.00 0.00 0.00 1019.5
20140723153956 72 346 0.0 0.0 0.00 0.00 0.00 1019.5
20140723153856 72 346 0.0 0.0 0.00 0.00 0.00 1019.5
20140723153756 72 346 0.0 0.0 0.00 0.00 0.00 1019.5
20140723153556 73 346 0.0 0.0 0.00 0.00 0.00 1019.5
20140723153456 72 346 0.0 0.0 0.00 0.00 0.00 1019.6
20140723153356 72 346 0.0 0.0 0.00 0.00 0.00 1019.6
20140723153256 73 346 0.0 0.0 0.00 0.00 0.00 1019.6
20140723152956 72 346 0.0 0.0 0.00 0.00 0.00 1019.6
20140723152656 73 346 0.0 0.0 0.00 0.00 0.00 1019.6
20140723152556 73 346 0.0 0.0 0.00 0.00 0.00 1019.6
20140723152356 72 346 0.0 0.0 0.00 0.00 0.00 1019.6
20140723152156 72 346 0.0 0.0 0.00 0.00 0.00 1019.5
20140723152056 72 346 0.0 0.0 0.00 0.00 0.00 1019.6
20140723151856 72 346 0.0 0.0 0.00 0.00 0.00 1019.5
20140723151756 71 346 0.0 0.0 0.00 0.00 0.00 1019.6
20140723151656 72 346 0.0 0.0 0.00 0.00 0.00 1019.5
20140723151556 72 346 0.0 0.0 0.00 0.00 0.00 1019.5
20140723151456 72 346 0.0 0.0 0.00 0.00 0.00 1019.5
20140723151256 71 346 0.0 0.0 0.00 0.00 0.00 1019.5
20140723150556 70 346 0.0 0.0 0.00 0.00 0.00 1019.5
20140723150456 70 346 0.0 0.0 0.00 0.00 0.00 1019.5
20140723150356 70 346 0.0 0.0 0.00 0.00 0.00 1019.5
20140723150256 70 346 0.0 0.0 0.00 0.00 0.00 1019.5
20140723150056 69 346 0.0 0.0 0.00 0.00 0.00 1019.5
20140723145856 70 346 0.0 0.0 0.00 0.00 0.00 1019.5
20140723145756 69 346 0.0 0.0 0.00 0.00 0.00 1019.5
20140723145656 70 346 0.0 0.0 0.00 0.00 0.00 1019.5
20140723145556 69 346 0.0 0.0 0.00 0.00 0.00 1019.5
20140723145456 69 346 0.0 0.0 0.00 0.00 0.00 1019.5
20140723145356 69 346 0.0 0.0 0.00 0.00 0.00 1019.5
20140723145156 69 346 0.0 0.0 0.00 0.00 0.00 1019.4
20140723145056 69 346 0.0 0.0 0.00 0.00 0.00 1019.4
20140723144956 68 346 0.0 0.0 0.00 0.00 0.00 1019.4
20140723144856 68 346 0.0 0.0 0.00 0.00 0.00 1019.4
20140723144556 68 346 0.0 0.0 0.00 0.00 0.00 1019.3
20140723144456 68 346 0.0 0.0 0.00 0.00 0.00 1019.3
20140723144356 68 346 0.0 0.0 0.00 0.00 0.00 1019.3
20140723144256 68 346 0.0 0.0 0.00 0.00 0.00 1019.3
20140723144156 68 346 0.0 0.0 0.00 0.00 0.00 1019.3
20140723144056 68 346 0.0 0.0 0.00 0.00 0.00 1019.3
20140723143956 68 346 0.0 0.0 0.00 0.00 0.00 1019.3
20140723143756 68 318 3.0 0.0 0.00 0.00 0.00 1019.4
20140723143656 67 319 4.0 0.0 0.00 0.00 0.00 1019.4
20140723143456 67 346 4.0 0.0 0.00 0.00 0.00 1019.4
20140723143356 67 291 0.0 0.0 0.00 0.00 0.00 1019.4
20140723143156 67 315 3.0 0.0 0.00 0.00 0.00 1019.4
20140723143056 68 326 5.0 0.0 0.00 0.00 0.00 1019.4
20140723142956 67 333 3.0 0.0 0.00 0.00 0.00 1019.4
20140723142656 67 322 5.0 0.0 0.00 0.00 0.00 1019.4
20140723142556 67 318 5.0 0.0 0.00 0.00 0.00 1019.4
20140723142156 67 17 4.0 0.0 0.00 0.00 0.00 1019.4
20140723142055 67 359 3.0 0.0 0.00 0.00 0.00 1019.4
20140723141855 67 340 6.0 0.0 0.00 0.00 0.00 1019.5
20140723141756 67 342 5.0 0.0 0.00 0.00 0.00 1019.5
20140723141556 67 342 6.0 0.0 0.00 0.00 0.00 1019.5
20140723141456 67 329 6.0 0.0 0.00 0.00 0.00 1019.5
20140723141256 67 345 5.0 0.0 0.00 0.00 0.00 1019.5
20140723141156 67 15 5.0 0.0 0.00 0.00 0.00 1019.5
20140723141056 67 352 5.0 0.0 0.00 0.00 0.00 1019.4
20140723140955 67 23 6.0 0.0 0.00 0.00 0.00 1019.5
20140723140756 66 359 4.0 0.0 0.00 0.00 0.00 1019.5
20140723140555 66 13 5.0 0.0 0.00 0.00 0.00 1019.5
20140723140356 66 359 5.0 0.0 0.00 0.00 0.00 1019.4
20140723140255 66 346 5.0 0.0 0.00 0.00 0.00 1019.4
20140723140155 66 333 5.0 0.0 0.00 0.00 0.00 1019.4
20140723140056 66 3 5.0 0.0 0.00 0.00 0.00 1019.4
20140723135955 66 345 4.0 0.0 0.00 0.00 0.00 1019.4
20140723135856 66 346 5.0 0.0 0.00 0.00 0.00 1019.4
20140723135755 66 353 6.0 0.0 0.00 0.00 0.00 1019.4
20140723135656 66 359 5.0 0.0 0.00 0.00 0.00 1019.4
20140723135556 66 354 3.0 0.0 0.00 0.00 0.00 1019.4
20140723135356 66 352 4.0 0.0 0.00 0.00 0.00 1019.3
20140723135256 66 339 5.0 0.0 0.00 0.00 0.00 1019.3
20140723135056 66 318 3.0 0.0 0.00 0.00 0.00 1019.3
20140723134956 66 329 5.0 0.0 0.00 0.00 0.00 1019.3
20140723134856 66 325 4.0 0.0 0.00 0.00 0.00 1019.3
20140723134656 66 330 6.0 0.0 0.00 0.00 0.00 1019.3
20140723134456 66 338 6.0 0.0 0.00 0.00 0.00 1019.2
20140723134256 66 338 5.0 0.0 0.00 0.00 0.00 1019.2
20140723134156 65 336 6.0 0.0 0.00 0.00 0.00 1019.2
20140723134056 66 330 5.0 0.0 0.00 0.00 0.00 1019.2
20140723133955 66 328 6.0 0.0 0.00 0.00 0.00 1019.2
20140723133855 66 338 5.0 0.0 0.00 0.00 0.00 1019.2
20140723133755 65 329 5.0 0.0 0.00 0.00 0.00 1019.2